When you browse on this site, cookies collect data to enhance your experience and personalize the content and advertising you see.
Visit our Privacy Policy to learn more. By continuing to use the site, you agree to this use of cookies and data.
  • In United Kingdom
  • List of Countries
  • For 7 days
  • Water Temperature
  • Satellite Maps
  • Weather Map
  • Weather Widgets
  • user-avatar
    Login

    Hourly Weather Cacheu

    Today, 23 January, Wednesday

    Time Temperature Precipitation Wind Pressure Humidity
    00:00 +25°C° 0 mm 3 mps 759 mmHg 11%
    01:00 +25°C° 0 mm 3 mps 759 mmHg 10%
    02:00 +25°C° 0 mm 3 mps 758 mmHg 10%
    03:00 +24°C° 0 mm 3 mps 758 mmHg 11%
    04:00 +24°C° 0 mm 3 mps 758 mmHg 12%
    05:00 +22°C° 0 mm 3 mps 758 mmHg 13%
    06:00 +24°C° 0 mm 3 mps 759 mmHg 14%
    07:00 +25°C° 0 mm 4 mps 759 mmHg 14%
    08:00 +26°C° 0 mm 4 mps 759 mmHg 15%
    09:00 +29°C° 0 mm 4 mps 759 mmHg 13%
    10:00 +33°C° 0 mm 4 mps 759 mmHg 11%
    11:00 +36°C° 0 mm 4 mps 759 mmHg 9%
    12:00 +37°C° 0 mm 4 mps 758 mmHg 9%
    13:00 +40°C° 0 mm 4 mps 758 mmHg 9%
    14:00 +40°C° 0 mm 3 mps 757 mmHg 9%
    15:00 +39°C° 0 mm 3 mps 757 mmHg 10%
    16:00 +39°C° 0 mm 3 mps 757 mmHg 10%
    17:00 +38°C° 0 mm 3 mps 757 mmHg 11%
    18:00 +36°C° 0 mm 4 mps 757 mmHg 13%
    19:00 +33°C° 0 mm 4 mps 758 mmHg 15%
    20:00 +29°C° 0 mm 4 mps 758 mmHg 17%
    21:00 +28°C° 0 mm 4 mps 759 mmHg 22%
    22:00 +28°C° 0 mm 4 mps 759 mmHg 28%
    23:00 +27°C° 0 mm 4 mps 759 mmHg 33%

    Tomorrow, 24 January, Thursday

    Time Temperature Precipitation Wind Pressure Humidity
    00:00 +26°C° 0 mm 4 mps 759 mmHg 31%
    01:00 +25°C° 0 mm 4 mps 758 mmHg 29%
    02:00 +25°C° 0 mm 3 mps 758 mmHg 27%
    03:00 +24°C° 0 mm 3 mps 758 mmHg 25%
    04:00 +24°C° 0 mm 3 mps 758 mmHg 23%
    05:00 +22°C° 0 mm 3 mps 758 mmHg 21%
    06:00 +24°C° 0 mm 3 mps 758 mmHg 21%
    07:00 +25°C° 0 mm 3 mps 759 mmHg 20%
    08:00 +26°C° 0 mm 4 mps 759 mmHg 19%
    09:00 +28°C° 0 mm 4 mps 759 mmHg 17%
    10:00 +32°C° 0 mm 4 mps 759 mmHg 15%
    11:00 +34°C° 0 mm 4 mps 759 mmHg 13%
    12:00 +36°C° 0 mm 4 mps 758 mmHg 13%
    13:00 +37°C° 0 mm 4 mps 757 mmHg 12%
    14:00 +38°C° 0 mm 4 mps 756 mmHg 12%
    15:00 +37°C° 0 mm 4 mps 756 mmHg 12%
    16:00 +37°C° 0 mm 3 mps 756 mmHg 13%
    17:00 +37°C° 0 mm 3 mps 756 mmHg 14%
    18:00 +34°C° 0 mm 3 mps 757 mmHg 17%
    19:00 +31°C° 0 mm 3 mps 757 mmHg 20%
    20:00 +28°C° 0 mm 3 mps 758 mmHg 23%
    21:00 +27°C° 0 mm 3 mps 758 mmHg 30%
    22:00 +26°C° 0 mm 3 mps 758 mmHg 36%
    23:00 +25°C° 0 mm 3 mps 758 mmHg 43%

    Day after tomorrow, 25 January, Friday

    Time Temperature Precipitation Wind Pressure Humidity
    00:00 +25°C° 0 mm 3 mps 758 mmHg 45%
    01:00 +24°C° 0 mm 3 mps 758 mmHg 46%
    02:00 +24°C° 0 mm 3 mps 758 mmHg 47%
    03:00 +22°C° 0 mm 3 mps 758 mmHg 44%
    04:00 +22°C° 0 mm 3 mps 758 mmHg 40%
    05:00 +22°C° 0 mm 3 mps 757 mmHg 37%
    06:00 +24°C° 0 mm 3 mps 758 mmHg 34%
    07:00 +25°C° 0 mm 3 mps 759 mmHg 31%
    08:00 +26°C° 0 mm 4 mps 759 mmHg 28%
    09:00 +29°C° 0 mm 4 mps 759 mmHg 24%
    10:00 +33°C° 0 mm 3 mps 759 mmHg 19%
    11:00 +36°C° 0 mm 3 mps 759 mmHg 14%
    12:00 +37°C° 0 mm 3 mps 759 mmHg 14%
    13:00 +38°C° 0 mm 3 mps 758 mmHg 13%
    14:00 +39°C° 0 mm 3 mps 757 mmHg 12%
    15:00 +40°C° 0 mm 4 mps 757 mmHg 13%
    16:00 +38°C° 0 mm 4 mps 757 mmHg 14%
    17:00 +37°C° 0 mm 4 mps 756 mmHg 15%
    18:00 +34°C° 0 mm 4 mps 757 mmHg 21%
    19:00 +32°C° 0 mm 4 mps 758 mmHg 26%
    20:00 +28°C° 0 mm 4 mps 758 mmHg 31%
    21:00 +27°C° 0 mm 4 mps 758 mmHg 36%
    22:00 +26°C° 0 mm 3 mps 759 mmHg 41%
    23:00 +25°C° 0 mm 3 mps 759 mmHg 46%

    26 January, Saturday

    Time Temperature Precipitation Wind Pressure Humidity
    00:00 +24°C° 0 mm 3 mps 758 mmHg 49%
    01:00 +24°C° 0 mm 3 mps 758 mmHg 52%
    02:00 +22°C° 0 mm 3 mps 758 mmHg 56%
    03:00 +22°C° 0 mm 3 mps 758 mmHg 54%
    04:00 +22°C° 0 mm 3 mps 758 mmHg 53%
    05:00 +21°C° 0 mm 3 mps 758 mmHg 51%
    06:00 +22°C° 0 mm 3 mps 758 mmHg 46%
    07:00 +24°C° 0 mm 3 mps 759 mmHg 41%
    08:00 +25°C° 0 mm 4 mps 759 mmHg 36%
    09:00 +28°C° 0 mm 3 mps 759 mmHg 30%
    10:00 +31°C° 0 mm 3 mps 759 mmHg 24%
    11:00 +35°C° 0 mm 3 mps 760 mmHg 18%
    12:00 +37°C° 0 mm 3 mps 759 mmHg 16%
    13:00 +38°C° 0 mm 2 mps 758 mmHg 15%
    14:00 +40°C° 0 mm 2 mps 757 mmHg 13%
    15:00 +39°C° 0 mm 2 mps 757 mmHg 14%
    16:00 +38°C° 0 mm 3 mps 756 mmHg 15%
    17:00 +38°C° 0 mm 3 mps 756 mmHg 17%
    18:00 +35°C° 0 mm 4 mps 757 mmHg 21%
    19:00 +32°C° 0 mm 4 mps 758 mmHg 25%
    20:00 +28°C° 0 mm 4 mps 758 mmHg 30%
    21:00 +27°C° 0 mm 4 mps 758 mmHg 33%
    22:00 +27°C° 0 mm 4 mps 758 mmHg 37%
    23:00 +26°C° 0 mm 4 mps 759 mmHg 41%

    27 January, Sunday

    Time Temperature Precipitation Wind Pressure Humidity
    00:00 +25°C° 0 mm 3 mps 758 mmHg 41%
    01:00 +25°C° 0 mm 3 mps 758 mmHg 42%
    02:00 +25°C° 0 mm 3 mps 758 mmHg 42%
    03:00 +24°C° 0 mm 3 mps 758 mmHg 39%
    04:00 +24°C° 0 mm 3 mps 758 mmHg 35%
    05:00 +22°C° 0 mm 3 mps 758 mmHg 31%
    06:00 +24°C° 0 mm 3 mps 758 mmHg 28%
    07:00 +25°C° 0 mm 3 mps 759 mmHg 25%
    08:00 +26°C° 0 mm 4 mps 759 mmHg 22%
    09:00 +29°C° 0 mm 4 mps 759 mmHg 17%
    10:00 +34°C° 0 mm 4 mps 759 mmHg 13%
    11:00 +37°C° 0 mm 4 mps 759 mmHg 8%
    12:00 +40°C° 0 mm 4 mps 758 mmHg 8%
    13:00 +40°C° 0 mm 3 mps 757 mmHg 7%
    14:00 +42°C° 0 mm 3 mps 756 mmHg 7%
    15:00 +40°C° 0 mm 3 mps 756 mmHg 8%
    16:00 +40°C° 0 mm 3 mps 756 mmHg 9%
    17:00 +39°C° 0 mm 3 mps 756 mmHg 10%
    18:00 +36°C° 0 mm 3 mps 757 mmHg 11%
    19:00 +33°C° 0 mm 3 mps 757 mmHg 13%
    20:00 +30°C° 0 mm 3 mps 758 mmHg 15%
    21:00 +29°C° 0 mm 3 mps 758 mmHg 19%
    22:00 +28°C° 0 mm 3 mps 758 mmHg 23%
    23:00 +27°C° 0 mm 3 mps 758 mmHg 27%

    28 January, Monday

    Time Temperature Precipitation Wind Pressure Humidity
    00:00 +27°C° 0 mm 3 mps 758 mmHg 22%
    01:00 +27°C° 0 mm 3 mps 757 mmHg 17%
    02:00 +27°C° 0 mm 3 mps 757 mmHg 12%
    03:00 +26°C° 0 mm 3 mps 757 mmHg 11%
    04:00 +26°C° 0 mm 3 mps 757 mmHg 10%
    05:00 +25°C° 0 mm 3 mps 757 mmHg 9%
    06:00 +26°C° 0 mm 3 mps 757 mmHg 10%
    07:00 +27°C° 0 mm 4 mps 758 mmHg 10%
    08:00 +28°C° 0 mm 4 mps 758 mmHg 10%
    09:00 +30°C° 0 mm 4 mps 758 mmHg 9%
    10:00 +33°C° 0 mm 4 mps 758 mmHg 8%
    11:00 +35°C° 0 mm 5 mps 758 mmHg 7%
    12:00 +36°C° 0 mm 4 mps 758 mmHg 7%
    13:00 +36°C° 0 mm 4 mps 757 mmHg 7%
    14:00 +37°C° 0 mm 4 mps 756 mmHg 7%
    15:00 +37°C° 0 mm 4 mps 756 mmHg 7%
    16:00 +36°C° 0 mm 4 mps 756 mmHg 7%
    17:00 +36°C° 0 mm 3 mps 756 mmHg 7%
    18:00 +34°C° 0 mm 3 mps 756 mmHg 8%
    19:00 +31°C° 0 mm 2 mps 757 mmHg 9%
    20:00 +28°C° 0 mm 2 mps 757 mmHg 10%
    21:00 +28°C° 0 mm 2 mps 757 mmHg 9%
    22:00 +28°C° 0 mm 2 mps 757 mmHg 9%
    23:00 +27°C° 0 mm 2 mps 757 mmHg 8%
    Show more